BAW29 LIMF-LFLL

Flight info

Callsign BAW29
Flight time 0h 33m
Altitude 22000
Route IXUSA DCT AMVAR
Aircraft B738/M-SDE2E3FGHIRWXY/LB1

Departure

Time 2026-05-05 21:11
Airport Turin Airport (LIMF)

Arrival

Time 2026-05-05 21:44
Airport Lyon Saint-Exupéry Airport (LFLL)
Time Latitude Longitude Altitude Speed Heading
2026-05-05 20:48 45.18895 7.64563 942 ft 0 kts 272°
2026-05-05 21:02 45.18882 7.64592 940 ft 4 kts 322°
2026-05-05 21:02 45.18869 7.64607 940 ft 3 kts 311°
2026-05-05 21:02 45.18859 7.64633 937 ft 2 kts 287°
2026-05-05 21:03 45.18856 7.64648 939 ft 2 kts 277°
2026-05-05 21:03 45.18855 7.64652 939 ft 0 kts 275°
2026-05-05 21:07 45.18854 7.64650 938 ft 0 kts 252°
2026-05-05 21:07 45.18848 7.64648 938 ft 3 kts 196°
2026-05-05 21:08 45.18799 7.64640 936 ft 11 kts 184°
2026-05-05 21:08 45.18705 7.64636 935 ft 15 kts 181°
2026-05-05 21:08 45.18660 7.64647 933 ft 0 kts 157°
2026-05-05 21:09 45.18650 7.64654 934 ft 4 kts 151°
2026-05-05 21:09 45.18619 7.64719 932 ft 12 kts 103°
2026-05-05 21:09 45.18645 7.64854 932 ft 17 kts 44°
2026-05-05 21:10 45.18761 7.64883 939 ft 23 kts
2026-05-05 21:10 45.19078 7.64904 950 ft 80 kts
2026-05-05 21:10 45.19904 7.64951 963 ft 155 kts
2026-05-05 21:10 45.21124 7.65005 1429 ft 183 kts
2026-05-05 21:11 45.22366 7.65058 2671 ft 172 kts
2026-05-05 21:11 45.23620 7.65083 3437 ft 194 kts
2026-05-05 21:11 45.25037 7.65104 3982 ft 209 kts
2026-05-05 21:11 45.26501 7.65532 4327 ft 232 kts 30°
2026-05-05 21:12 45.27580 7.67295 4767 ft 248 kts 68°
2026-05-05 21:12 45.27793 7.69812 5223 ft 267 kts 102°
2026-05-05 21:12 45.26982 7.72182 6031 ft 273 kts 134°
2026-05-05 21:12 45.25502 7.73801 6937 ft 271 kts 156°
2026-05-05 21:13 45.23720 7.74469 8188 ft 255 kts 169°
2026-05-05 21:13 45.22046 7.75002 9438 ft 238 kts 167°
2026-05-05 21:13 45.20477 7.75554 10408 ft 231 kts 166°
2026-05-05 21:13 45.18910 7.76130 11091 ft 235 kts 166°
2026-05-05 21:14 45.17325 7.76726 11754 ft 237 kts 165°
2026-05-05 21:14 45.15723 7.77332 12427 ft 240 kts 165°
2026-05-05 21:14 45.14097 7.77951 13084 ft 242 kts 165°
2026-05-05 21:14 45.12465 7.78574 13712 ft 245 kts 165°
2026-05-05 21:15 45.10800 7.79210 13980 ft 250 kts 165°
2026-05-05 21:15 45.09126 7.79850 13996 ft 249 kts 165°
2026-05-05 21:15 45.07456 7.80485 13992 ft 248 kts 167°
2026-05-05 21:15 45.05765 7.80439 13997 ft 244 kts 204°
2026-05-05 21:16 45.04465 7.78986 14172 ft 241 kts 238°
2026-05-05 21:16 45.03837 7.76806 14648 ft 246 kts 262°
2026-05-05 21:16 45.03915 7.74386 15176 ft 250 kts 284°
2026-05-05 21:16 45.04411 7.72010 15558 ft 264 kts 288°
2026-05-05 21:17 45.04714 7.69323 15698 ft 287 kts 262°
2026-05-05 21:17 45.04015 7.66635 15896 ft 307 kts 240°
2026-05-05 21:17 45.02747 7.64066 16059 ft 329 kts 230°
2026-05-05 21:17 45.01095 7.61685 16211 ft 351 kts 220°
2026-05-05 21:18 44.98989 7.59666 16354 ft 371 kts 206°
2026-05-05 21:18 44.96520 7.58506 16478 ft 390 kts 189°
2026-05-05 21:18 44.93760 7.58540 16661 ft 406 kts 169°
2026-05-05 21:18 44.91055 7.59917 17119 ft 412 kts 155°
2026-05-05 21:19 44.88336 7.61217 17675 ft 415 kts 171°
2026-05-05 21:19 44.85498 7.61266 18240 ft 417 kts 189°
2026-05-05 21:19 44.82732 7.60054 18785 ft 419 kts 207°
2026-05-05 21:19 44.80363 7.57701 19291 ft 421 kts 225°
2026-05-05 21:20 44.78599 7.54395 19810 ft 424 kts 243°
2026-05-05 21:20 44.77636 7.50477 20317 ft 426 kts 260°
2026-05-05 21:20 44.77562 7.46312 20788 ft 429 kts 278°
2026-05-05 21:20 44.78312 7.42239 21255 ft 432 kts 289°
2026-05-05 21:21 44.79394 7.38281 21688 ft 435 kts 292°
2026-05-05 21:21 44.80555 7.34331 21997 ft 440 kts 292°
2026-05-05 21:21 44.81756 7.30323 21999 ft 449 kts 292°
2026-05-05 21:21 44.82985 7.26245 22008 ft 456 kts 293°
2026-05-05 21:22 44.84239 7.22097 22008 ft 462 kts 293°
2026-05-05 21:22 44.85501 7.17930 22000 ft 464 kts 293°
2026-05-05 21:22 44.86669 7.14077 21997 ft 465 kts 293°
2026-05-05 21:22 44.87945 7.09866 21993 ft 468 kts 293°
2026-05-05 21:23 44.89227 7.05636 22004 ft 470 kts 293°
2026-05-05 21:23 44.90514 7.01389 22000 ft 471 kts 293°
2026-05-05 21:23 44.91776 6.97223 21990 ft 452 kts 293°
2026-05-05 21:23 44.92988 6.93223 21982 ft 437 kts 293°
2026-05-05 21:24 44.94165 6.89331 21985 ft 425 kts 293°
2026-05-05 21:24 44.95311 6.85544 21994 ft 414 kts 293°
2026-05-05 21:24 44.96428 6.81852 21993 ft 405 kts 293°
2026-05-05 21:24 44.97520 6.78236 21985 ft 397 kts 293°
2026-05-05 21:25 44.98598 6.74668 21986 ft 392 kts 293°
2026-05-05 21:25 44.99648 6.71190 21993 ft 388 kts 293°
2026-05-05 21:25 45.00699 6.67708 21991 ft 384 kts 293°
2026-05-05 21:25 45.01753 6.64215 21998 ft 379 kts 293°
2026-05-05 21:26 45.02767 6.60849 21995 ft 376 kts 293°
2026-05-05 21:26 45.03788 6.57462 21992 ft 376 kts 293°
2026-05-05 21:26 45.04823 6.54026 22007 ft 382 kts 293°
2026-05-05 21:26 45.05859 6.50584 22009 ft 388 kts 293°
2026-05-05 21:27 45.06917 6.47066 22011 ft 393 kts 293°
2026-05-05 21:27 45.07995 6.43479 22009 ft 398 kts 293°
2026-05-05 21:27 45.09086 6.39846 22016 ft 404 kts 293°
2026-05-05 21:27 45.10194 6.36156 22008 ft 412 kts 293°
2026-05-05 21:28 45.11325 6.32386 21999 ft 419 kts 293°
2026-05-05 21:28 45.12473 6.28519 21614 ft 435 kts 292°
2026-05-05 21:28 45.13862 6.24674 21365 ft 446 kts 305°
2026-05-05 21:28 45.15992 6.21381 20726 ft 464 kts 320°
2026-05-05 21:29 45.18546 6.18507 20526 ft 470 kts 321°
2026-05-05 21:29 45.21085 6.15654 20701 ft 459 kts 321°
2026-05-05 21:29 45.23537 6.12895 20593 ft 440 kts 321°
2026-05-05 21:29 45.25894 6.10243 20443 ft 425 kts 321°
2026-05-05 21:30 45.28152 6.07702 20360 ft 403 kts 321°
2026-05-05 21:30 45.30294 6.05291 20192 ft 384 kts 321°
2026-05-05 21:30 45.32374 6.02949 19761 ft 379 kts 321°
2026-05-05 21:30 45.34429 6.00634 19401 ft 374 kts 321°
2026-05-05 21:31 45.36449 5.98358 19042 ft 369 kts 321°
2026-05-05 21:31 45.38453 5.96100 18662 ft 365 kts 321°
2026-05-05 21:31 45.40441 5.93859 18152 ft 365 kts 321°
2026-05-05 21:31 45.42438 5.91607 17543 ft 368 kts 321°
2026-05-05 21:32 45.44446 5.89341 17100 ft 366 kts 321°
2026-05-05 21:32 45.46419 5.87114 16831 ft 359 kts 321°
2026-05-05 21:32 45.48372 5.84923 16372 ft 358 kts 323°
2026-05-05 21:32 45.50484 5.83068 15963 ft 355 kts 331°
2026-05-05 21:33 45.52622 5.81435 15539 ft 353 kts 331°
2026-05-05 21:33 45.54725 5.79654 15148 ft 349 kts 326°
2026-05-05 21:33 45.56651 5.77578 14765 ft 346 kts 319°
2026-05-05 21:33 45.58397 5.75235 14327 ft 344 kts 314°
2026-05-05 21:34 45.60000 5.72708 13895 ft 343 kts 310°
2026-05-05 21:34 45.61506 5.70067 13480 ft 341 kts 308°
2026-05-05 21:34 45.62940 5.67383 13099 ft 339 kts 306°
2026-05-05 21:34 45.64323 5.64698 12756 ft 334 kts 306°
2026-05-05 21:35 45.65678 5.62014 12341 ft 333 kts 305°
2026-05-05 21:35 45.67024 5.59318 11921 ft 332 kts 305°
2026-05-05 21:35 45.68362 5.56627 11422 ft 330 kts 305°
2026-05-05 21:35 45.69680 5.53969 10909 ft 326 kts 305°
2026-05-05 21:36 45.70982 5.51339 10424 ft 322 kts 305°
2026-05-05 21:36 45.72263 5.48746 10019 ft 315 kts 305°
2026-05-05 21:36 45.73514 5.46214 9605 ft 309 kts 305°
2026-05-05 21:36 45.74737 5.43735 9211 ft 303 kts 305°
2026-05-05 21:37 45.75944 5.41286 8803 ft 298 kts 305°
2026-05-05 21:37 45.77128 5.38882 8402 ft 294 kts 305°
2026-05-05 21:37 45.78297 5.36506 8013 ft 289 kts 305°
2026-05-05 21:37 45.79443 5.34174 7703 ft 283 kts 305°
2026-05-05 21:38 45.80577 5.31867 7205 ft 284 kts 305°
2026-05-05 21:38 45.81715 5.29549 6699 ft 284 kts 305°
2026-05-05 21:38 45.82853 5.27231 6206 ft 284 kts 305°
2026-05-05 21:38 45.83991 5.24908 5730 ft 284 kts 305°
2026-05-05 21:39 45.85115 5.22611 5340 ft 280 kts 304°
2026-05-05 21:39 45.86229 5.20336 4940 ft 277 kts 304°
2026-05-05 21:39 45.87331 5.18083 4535 ft 275 kts 304°
2026-05-05 21:39 45.88423 5.15848 4146 ft 272 kts 305°
2026-05-05 21:40 45.89505 5.13627 3748 ft 271 kts 304°
2026-05-05 21:40 45.90541 5.11424 3354 ft 270 kts 298°
2026-05-05 21:40 45.90895 5.08839 3069 ft 261 kts 260°
2026-05-05 21:40 45.90145 5.06615 3039 ft 243 kts 223°
2026-05-05 21:41 45.88710 5.05605 3047 ft 226 kts 185°
2026-05-05 21:41 45.87266 5.06095 3061 ft 208 kts 150°
2026-05-05 21:41 45.86035 5.07004 3059 ft 192 kts 156°
2026-05-05 21:41 45.84744 5.07581 2981 ft 194 kts 169°
2026-05-05 21:42 45.83443 5.07938 2736 ft 189 kts 172°
2026-05-05 21:42 45.82144 5.08129 2495 ft 187 kts 176°
2026-05-05 21:42 45.80833 5.08286 2221 ft 184 kts 175°
2026-05-05 21:42 45.79578 5.08436 1980 ft 179 kts 175°
2026-05-05 21:43 45.78366 5.08585 1744 ft 172 kts 176°
2026-05-05 21:43 45.77204 5.08728 1555 ft 164 kts 175°
2026-05-05 21:43 45.76082 5.08866 1321 ft 160 kts 175°
2026-05-05 21:43 45.74982 5.09000 1104 ft 159 kts 175°
2026-05-05 21:44 45.73886 5.09135 909 ft 160 kts 175°
2026-05-05 21:44 45.72790 5.09267 805 ft 153 kts 175°
2026-05-05 21:44 45.71895 5.09373 814 ft 87 kts 174°
2026-05-05 21:44 45.71582 5.09422 820 ft 35 kts 174°
2026-05-05 21:45 45.71354 5.09450 826 ft 30 kts 175°
2026-05-05 21:45 45.71155 5.09463 828 ft 26 kts 194°
2026-05-05 21:45 45.71100 5.09311 826 ft 14 kts 263°
2026-05-05 21:45 45.71095 5.09250 824 ft 0 kts 264°
2026-05-05 21:46 45.71095 5.09243 824 ft 2 kts 265°
2026-05-05 21:46 45.71092 5.09201 823 ft 6 kts 265°
2026-05-05 21:47 45.71087 5.09119 821 ft 10 kts 265°
2026-05-05 21:47 45.71080 5.09009 821 ft 12 kts 264°
2026-05-05 21:47 45.71079 5.08880 819 ft 14 kts 277°
2026-05-05 21:47 45.71100 5.08745 821 ft 14 kts 286°
2026-05-05 21:48 45.71134 5.08604 821 ft 15 kts 299°
2026-05-05 21:48 45.71227 5.08546 819 ft 16 kts 354°
2026-05-05 21:48 45.71344 5.08533 818 ft 18 kts 354°
2026-05-05 21:48 45.71475 5.08516 814 ft 20 kts 356°
2026-05-05 21:49 45.71569 5.08506 812 ft 21 kts 356°
2026-05-05 21:49 45.71674 5.08459 813 ft 15 kts 304°
2026-05-05 21:49 45.71676 5.08316 813 ft 14 kts 265°
2026-05-05 21:49 45.71688 5.08179 813 ft 14 kts 284°
2026-05-05 21:50 45.71707 5.08112 812 ft 3 kts 311°
2026-05-05 21:50 45.71722 5.08087 812 ft 3 kts 308°
2026-05-05 21:50 45.71735 5.08058 812 ft 4 kts 303°
2026-05-05 21:50 45.71748 5.08023 812 ft 4 kts 292°
2026-05-05 21:51 45.71756 5.07979 812 ft 4 kts 279°
2026-05-05 21:51 45.71756 5.07951 812 ft 3 kts 269°
2026-05-05 21:51 45.71756 5.07932 812 ft 0 kts 266°